www.pogodaiklimat.ru

Погода и климат >> Архив погоды >> Индия >> Kozhikode


ПОГОДА в Kozhikode

  • Прогноз погоды в Kozhikode
  • Монитор погоды в Kozhikode
  • Климат города

АРХИВ ПОГОДЫ в Kozhikode

Время (UTC), дата Ветер
(напр.,м/с)
 
Видим.   Явления Облачность Т
(С)
Тd
(С)
f
(%)
Тe
(С)
Тes
(С)
Комфортность P
(гПа)
Po
(гПа)
Тmin
(С)
Tmax
(С)
R
(мм)
R24
(мм)
S
(см)
06 17.08 ЮЗ 1 10 км 6/4 600 м
[Cb calv Ac trans Ci fib]
+30.2 +25.7 77 +45 +57 опасность
перегрева
1008.9 1009.0
09 17.08 ЮЗ 2 10 км 6/3 600 м
[Sc diur, vesp Ci sp]
+32.0 +26.7 74 +49 +60 опасность
перегрева
1006.4 1006.0
12 17.08 ЮЗ 3 10 км 9/4 600 м
[Sc diur, vesp Ac trans Ci sp]
+29.6 +26.2 82 +45 +45 опасность
перегрева
1006.2 1006.0 +32.8
15 17.08 З 2 4000 м слабая морось {дождь} 10/4 300 м
[Cu Sc Ac As]
+26.6 +25.5 94 +39 +39 очень
душно
1007.9 1008.0 7
18 17.08 штиль 0 4000 м {дождь} 10/4 300 м
[Cu Sc Ac As]
+26.4 +25.5 95 +39 +39 очень
душно
1008.4 1008.0 7
21 17.08 штиль 0 4000 м слабая морось {дождь} 10/4 300 м
[Frnb Ac As]
+25.0 +24.7 98 +35 +35 очень
душно
1006.3 1006.0 25
00 18.08 штиль 0 4000 м {морось} 9/4 300 м
[Cu Sc Ac As]
+24.6 +23.7 95 +33 +33 очень
душно
1006.2 1006.0 25
03 18.08 штиль 0 10 км 10/5 600 м
[Sc diur, vesp Ac As]
+25.6 +25.0 96 +36 +38 очень
душно
1007.6 1008.0 +24.0 +32.8 25
06 18.08 штиль 0 10 км 4/3 600 м
[Sc diur, vesp Ac trans]
+30.2 +26.0 78 +45 +63 опасность
перегрева
1008.0 1008.0
09 18.08 З 1 4000 м в посл. час морось {дождь} 9/5 300 м
[Cu Sc Ac trans Ci sp]
+27.4 +26.3 94 +42 +48 опасность
перегрева
1005.5 1006.0 4
12 18.08 З 1 10 км {дождь, морось} 9/4 300 м
[Cu Sc Ac As]
+28.4 +26.2 88 +43 +44 опасность
перегрева
1005.6 1006.0 +31.2 4
15 18.08 З 1 4000 м 9/5 600 м
[Cu Sc Ac trans Ci sp]
+27.2 +25.5 90 +40 +40 очень
душно
1007.3 1007.0 4
18 18.08 З 1 4000 м слабый дождь 10/5 300 м
[Cu Sc Ac As]
+24.8 +24.2 96 +34 +34 очень
душно
1008.6 1009.0 28
21 18.08 В 1 4000 м {дождь} 9/4 600 м
[Cu Sc Ac As]
+24.2 +23.9 98 +33 +33 очень
душно
1006.4 1006.0 29
00 19.08 штиль 0 4000 м слабый дождь 10/5 300 м
[Cu Sc Ac As]
+24.4 +24.1 98 +34 +34 очень
душно
1006.9 1007.0 29
03 19.08 штиль 0 4000 м слабый дождь {морось} 10/5 300 м
[Cu Sc Ac As]
+24.8 -0.1 95 +23 +25 комфорт 1008.6 1009.0 +23.7 +31.2 33
06 19.08 СЗ 1 4000 м слабый дождь {морось} 10/8 300 м
[Cu Sc Ac As]
+26.8 +25.7 94 +40 +41 очень
душно
1008.7 1009.0 3
09 19.08 штиль 0 4000 м слабая морось {дождь} 10/4 300 м
[Cu Sc Ac As]
+26.4 +25.8 97 +39 +43 очень
душно
1006.6 1007.0 8
12 19.08 СЗ 1 10 км {дождь, морось} 6/1 600 м
[Sc diur, vesp Ac trans Ci sp]
+26.6 +24.3 87 +37 +38 очень
душно
1006.0 1006.0 +27.9 8
15 19.08 СЗ 1 4000 м в посл. час дождь 9/4 300 м
[Cu Sc Ac As]
+25.8 +24.9 95 +37 +37 очень
душно
1008.2 1008.0 8
18 19.08 штиль 0 4000 м слабая морось {дождь} 10/4 300 м
[Cu Sc Ac As]
+25.2 +24.9 98 +36 +36 очень
душно
1008.9 1009.0 8
21 19.08 штиль 0 4000 м в посл. час дождь 9/5 300 м
[Cu Sc Ac trans Ci sp]
+25.0 +24.7 98 +35 +35 очень
душно
1006.6 1007.0 13
00 20.08 штиль 0 4000 м {дождь} 9/5 300 м
[Cu Sc Ac trans Ci sp]
+24.8 +24.2 96 +34 +34 очень
душно
1006.4 1006.0 14
03 20.08 З 1 2000 м дождь {морось} 10/8 300 м
[Frnb Ac As]
+25.0 -0.2 97 +23 +24 комфорт 1008.4 1008.0 +24.0 +27.9 28
06 20.08 З 1 4000 м в посл. час дождь {морось} 9/4 600 м
[Cu Sc Ac trans Ci sp]
+27.4 +26.6 95 +42 +51 опасность
перегрева
1008.1 1008.0 8
09 20.08 З 1 10 км 6/4 600 м
[Cu Sc Ci sp]
+30.2 +27.2 84 +48 +59 опасность
перегрева
1006.2 1006.0 8
12 20.08 З 2 10 км {дождь} 8/4 600 м
[Cu Sc Ac trans Ci sp]
+28.2 +26.0 100 +26 +27 жарко 1009.8 1010.0 +30.8 12
15 20.08 СЗ 1 4000 м в посл. час дождь 10/5 300 м
[Cu Sc Ac trans Ci sp]
+25.0 +24.4 96 +35 +35 очень
душно
1007.8 1008.0 15
18 20.08 штиль 0 4000 м {дождь} 9/5 300 м
[Cu Sc Ac trans Ci sp]
+25.0 +24.1 95 +34 +34 очень
душно
1007.9 1008.0 18
21 20.08 штиль 0 4000 м {дождь} 9/4 300 м
[Cu Sc Ac trans Ci sp]
+24.8 +23.9 95 +34 +34 очень
душно
1006.3 1006.0 18
00 21.08 штиль 0 4000 м в посл. час дождь 9/5 300 м
[Cu Sc Ac trans Ci sp]
+24.6 +24.3 98 +34 +34 очень
душно
1006.4 1006.0 22
03 21.08 штиль 0 4000 м в посл. час дождь 9/5 300 м
[Cu Sc Ac As]
+25.2 +24.9 100 +24 +26 комфорт 1008.2 1008.0 +24.1 +30.8 24
06 21.08 штиль 0 4000 м слабый дождь 9/5 300 м
[Cu Sc Ac As]
+26.4 +25.8 97 +39 +45 очень
душно
1008.0 1008.0 0.4
09 21.08 ЮЗ 2 10 км в посл. час дождь 6/5 600 м
[Cb calv Ac trans]
+28.4 +27.0 92 +45 +53 опасность
перегрева
1005.8 1006.0 1
12 21.08 ЮЗ 1 10 км в посл. час дождь 10/5 600 м
[Cu Sc Ac As]
+26.6 +26.0 100 +25 +25 комфорт 1005.4 1005.0 +29.4 2
15 21.08 штиль 0 4000 м слабая морось {дождь} 8/5 600 м
[Cu Sc Ac trans Ci sp]
+25.6 +24.7 95 +36 +36 очень
душно
1007.1 1007.0 2
18 21.08 штиль 0 4000 м слабая морось {дождь} 8/5 600 м
[Cu Sc Ac trans]
+25.2 +24.9 98 +36 +36 очень
душно
1008.1 1008.0 3
21 21.08 штиль 0 4000 м слабый дождь {морось} 10/5 600 м
[Cu Sc Ac As]
+24.6 +23.7 95 +33 +33 очень
душно
1006.9 1007.0 26
00 22.08 штиль 0 4000 м слабая морось {дождь} 10/5 600 м
[Cu Sc Ac As]
+24.8 +23.7 94 +34 +34 очень
душно
1007.1 1007.0 38
03 22.08 штиль 0 4000 м {дождь} 9/5 300 м
[Cu Sc Ac As]
+24.8 +23.9 100 +23 +25 комфорт 1008.7 1009.0 +23.4 +29.4 40
06 22.08 штиль 0 4000 м слабая морось 10/5 300 м
[Cu Sc Ac As]
+25.8 +24.6 93 +36 +40 очень
душно
1008.7 1009.0 0.4
09 22.08 ЮЗ 2 10 км {морось} 9/3 600 м
[Sc diur, vesp Ac As]
+28.4 +25.9 86 +42 +47 опасность
перегрева
1007.0 1007.0 0.4
12 22.08 ЮЗ 2 10 км в посл. час дождь 10/5 600 м
[Cu Sc Ac As]
+27.0 +25.8 100 +25 +25 комфорт 1006.0 1006.0 +29.2 2
15 22.08 штиль 0 4000 м 8/5 300 м
[Cu Sc Ac trans Ci sp]
+26.4 +25.0 92 +38 +38 очень
душно
1008.2 1008.0 2
18 22.08 штиль 0 4000 м 9/4 300 м
[Sc diur, vesp Ac trans]
+25.6 +24.4 93 +36 +36 очень
душно
1009.4 1009.0 2
21 22.08 штиль 0 4000 м 9/4 300 м
[Cu Sc Ac trans Ci fib]
+25.0 +24.4 96 +35 +35 очень
душно
1007.5 1008.0 2
00 23.08 штиль 0 4000 м 5/3 600 м
[Sc diur, vesp Ac trans]
+25.0 +24.7 98 +35 +35 очень
душно
1007.7 1008.0 2
03 23.08 штиль 0 10 км 4/1 600 м
[Sc diur, vesp Ci fib]
+27.0 +25.5 100 +25 +32 комфорт 1008.7 1009.0 +24.0 +29.2 2
06 23.08 штиль 0 10 км 4/1 600 м
[Sc diur, vesp Ci fib]
+30.4 +26.2 78 +46 +70 опасность
перегрева
1009.6 1010.0
09 23.08 штиль 0 10 км 4/1 600 м
[Sc diur, vesp Ac trans]
+32.6 +26.5 70 +49 +65 опасность
перегрева
1007.4 1007.0
12 23.08 штиль 0 10 км 10/5 600 м
[Cu Sc Ac As]
+29.2 +27.3 90 +47 +47 опасность
перегрева
1007.4 1007.0 +33.4
15 23.08 штиль 0 4000 м 9/5 600 м
[Cu Sc Ac trans Ci sp]
+27.4 +25.4 89 +40 +40 очень
душно
1008.8 1009.0
18 23.08 штиль 0 4000 м 5/1 600 м
[Sc diur, vesp Ci sp]
+26.8 +25.1 90 +39 +39 очень
душно
1009.5 1010.0
21 23.08 штиль 0 50 км ?/? +26.4 +25.0 92 +38 +38 очень
душно
1008.0 1008.0
00 24.08 штиль 0 4000 м ясно +26.2 +25.1 94 +38 +38 очень
душно
1008.1 1008.0
03 24.08 ЮЗ 2 10 км 5/3 600 м
[Sc diur, vesp Ac trans]
+27.8 +25.8 89 +41 +45 опасность
перегрева
1009.3 1009.0 +25.6 +33.4

 

Местоположение метеостанции Kozhikode (Kerala, Индия): широта 11.25 долгота 75.78 высота над уровнем моря 5 м.

В архиве по умолчанию представлена погода в Kozhikode за последнюю неделю. Архивные данные за месяц целиком и за предыдущие месяцы, начиная с января 2011 года, Вы можете получить, выбрав интересующий диапазон дат из раскрывающегося списка и нажав кнопку "Ввод!".

Внимание! Время в таблицах - всемирное. Для получения местного времени необходимо прибавить поправку, которая в Kozhikode равна 5.5 ч.

Смотрите также архив погоды в соседних городах и на ближайших метеорологических станциях:

Погода в Karipur (Kerala, Индия) (23 км)
Погода в Cannanore (Kerala, Индия) (81 км)
Погода в Thrissur (Kerala, Индия) (94 км)
Погода в Udhagamandalam (Tamil Nadu, Индия) (105 км)
Погода в Palakkad (Kerala, Индия) (109 км)
Погода в Coonoor (Tamil Nadu, Индия) (112 км)
Погода в Madikeri (Karnataka, Индия) (130 км)
Погода в Kochi (Kerala, Индия) (140 км)
Погода в Coimbatore (Tamil Nadu, Индия) (141 км)
Погода в Chamarajnagar (Karnataka, Индия) (146 км)

Пояснения к столбцам:

Ветер - указаны скорость ветра в м/с - средняя за 10 мин, порывы в срок и между сроками (в фигурных скобках) и направление, откуда дует ветер: С - северный, СВ - северо-восточный, В - восточный, ЮВ - юго-восточный, Ю - южный, ЮЗ - юго-западный, З - западный, СЗ - северо-западный.
Видимость - горизонтальная дальность видимости в метрах или километрах. При видимости от 1 до 10 км при отсутствии осадков обычно наблюдается дымка, при ухудшении видимости до 1 км и менее - туман. В сухую погоду видимость может ухудшаться дымом, пылью или мглою.
Явления - указаны атмосферные явления, наблюдавшиеся в срок или в последний час перед сроком; фигурными скобками обозначены явления, наблюдавшиеся между сроками (за 1-3 часа до срока); квадратными скобками обозначены град или гололедные отложения с указанием их диаметра в мм.
Облачность - указаны через наклонную черту общая и нижняя облачность в баллах и высота нижней границы облаков в метрах; квадратными скобками обозначены формы облаков: Ci - перистые, Cs - перисто-слоистые, Cc - перисто-кучевые, Ac - высококучевые, As - высокослоистые, Sc - слоисто-кучевые, Ns - слоисто-дождевые, Cu - кучевые, Cb - кучево-дождевые. Подробнее классификацию облаков см. в Атласе облаков (PDF).
T - Температура воздуха - температура, измеренная на высоте 2 м над землей.
Td - Температура точки росы - температура, при понижении до которой содержащийся в воздухе водяной пар достигнет насыщения.
f - Относительная влажность воздуха - влажноcть воздуха, измеренная на высоте 2 м над землей.
Te - Эффективная температура - температура, которую ощущает одетый по сезону человек в тени. Характеристика душности погоды. При расчете учитывается влияние влажности воздуха и скорости ветра на теплоощущения человека.
Tes - Эффективная температура на солнце - температура, которую ощущает человек, с поправкой на солнечный нагрев. Характеристика знойности погоды. Зависит от высоты солнца над горизонтом, облачности и скорости ветра. Ночью, в пасмурную погоду, а также при ветре 12 м/с и более поправка равна нулю.
P - Атмосферное давление - приведенное к уровню моря атмосферное давление.
Po - Атмосферное давление - измеренное на уровне метеостанции атмосферное давление.
Tmin - Минимальная температура - минимум температуры воздуха на высоте 2 м над землей.
Tmax - Максимальная температура - максимум температуры воздуха на высоте 2 м над землей.
R - Количество осадков - Количество выпавших осадков за период времени, мм. При наведении курсора мыши на число - период времени, за который выпало указанное количество осадков.
R24 - Количество осадков - Количество выпавших осадков за 24 часа, мм.
S - Снежный покров - Высота снежного покрова, см. При наведении курсора мыши на число - состояние снежного покрова и степень покрытия местности в баллах.